GW1917 Weather Reports


time (UTC)temp
C
wind
direction
speed
KPH
gust
KPH
rain 1hr
cm
rain 24hr
cm
rain mn
cm
humidity
%
barometer
mb
20260507061031 6 221 6.4 9.7 0.00 0.00 0.00 73 1011.4
20260507060529 6 256 9.7 11.3 0.00 0.00 0.00 72 1011.3
20260507060026 6 208 4.8 8.0 0.00 0.00 0.00 72 1011.4
20260507055525 6 334 6.4 9.7 0.00 0.00 0.00 73 1011.4
20260507055022 6 299 8.0 11.3 0.00 0.00 0.00 75 1011.4
20260507054518 6 223 9.7 11.3 0.00 0.00 0.00 74 1011.3
20260507054015 6 203 3.2 3.2 0.00 0.00 0.00 75 1011.6
20260507053513 6 340 4.8 9.7 0.00 0.00 0.00 76 1011.4
20260507053012 6 228 4.8 8.0 0.00 0.00 0.00 76 1011.6
20260507052509 6 188 1.6 3.2 0.00 0.00 0.00 76 1011.2
20260507052005 6 120 0.0 1.6 0.00 0.00 0.00 81 1011.5
20260507051504 6 200 4.8 4.8 0.00 0.00 0.00 84 1011.6
20260507051000 6 189 4.8 4.8 0.00 0.00 0.00 84 1011.5
20260507050456 6 222 4.8 4.8 0.00 0.00 0.00 82 1011.6
20260507045953 6 153 3.2 4.8 0.00 0.00 0.00 86 1011.5
20260507045450 6 198 1.6 1.6 0.00 0.00 0.00 91 1011.5
20260507044948 6 148 3.2 3.2 0.00 0.00 0.00 92 1011.4
20260507044444 6 148 0.0 0.0 0.00 0.00 0.00 92 1011.5
20260507043940 6 200 1.6 1.6 0.00 0.00 0.00 91 1011.5
20260507043436 6 175 4.8 8.0 0.00 0.00 0.00 90 1011.5
20260507042932 6 109 0.0 1.6 0.00 0.00 0.00 92 1011.6
20260507042429 6 154 1.6 3.2 0.00 0.00 0.00 93 1011.4
20260507041925 6 148 0.0 1.6 0.00 0.00 0.00 93 1011.5
20260507041422 6 257 8.0 12.9 0.00 0.00 0.00 94 1011.3
20260507040920 6 157 3.2 3.2 0.00 0.00 0.00 95 1011.2
20260507040415 6 165 4.8 9.7 0.00 0.00 0.00 97 1011.1
20260507035911 6 161 1.6 3.2 0.00 1.14 1.14 97 1011.1
20260507035408 6 165 1.6 1.6 0.00 1.14 1.14 96 1011.2
20260507034905 6 205 3.2 3.2 0.00 1.14 1.14 96 1011.3
20260507034401 6 139 1.6 3.2 0.00 1.14 1.14 97 1011.1
20260507033859 6 160 3.2 4.8 0.00 1.14 1.14 96 1011.2
20260507033358 6 157 1.6 1.6 0.00 1.14 1.14 96 1011.2
20260507032854 6 151 1.6 1.6 0.00 1.14 1.14 96 1011.4
20260507032351 6 217 3.2 3.2 0.00 1.14 1.14 95 1011.4
20260507031847 6 137 1.6 1.6 0.00 1.14 1.14 95 1011.2
20260507031344 6 159 1.6 1.6 0.00 1.14 1.14 95 1011.1
20260507030840 6 161 1.6 1.6 0.00 1.14 1.14 94 1011.2
20260507030338 6 168 1.6 1.6 0.00 1.14 1.14 95 1011.2
20260507025834 6 161 1.6 1.6 0.00 1.14 1.14 94 1011.1
20260507025332 6 172 1.6 1.6 0.00 1.14 1.14 94 1011.2
20260507024830 6 156 0.0 1.6 0.00 1.14 1.14 94 1011.1
20260507024327 6 150 0.0 0.0 0.00 1.14 1.14 94 1011.1
20260507023822 6 172 1.6 1.6 0.00 1.14 1.14 94 1011.0
20260507023319 6 155 1.6 3.2 0.00 1.14 1.14 94 1011.2
20260507022817 6 125 0.0 0.0 0.00 1.14 1.14 93 1011.2
20260507022313 6 207 1.6 3.2 0.00 1.14 1.14 92 1011.3
20260507021809 6 183 1.6 1.6 0.00 1.14 1.14 92 1011.4
20260507021305 6 109 0.0 1.6 0.00 1.14 1.14 92 1011.4
20260507020803 6 234 6.4 8.0 0.00 1.14 1.14 91 1011.4
20260507020259 6 202 3.2 3.2 0.00 1.14 1.14 91 1011.5
20260507015757 6 207 4.8 8.0 0.00 1.14 1.14 91 1011.6
20260507015254 6 153 0.0 1.6 0.00 1.14 1.14 92 1011.5
20260507014751 6 244 6.4 8.0 0.00 1.14 1.14 92 1011.6
20260507014247 6 204 6.4 8.0 0.00 1.14 1.14 91 1011.7
20260507013743 6 202 0.0 1.6 0.00 1.14 1.14 92 1011.4
20260507013241 6 299 6.4 8.0 0.00 1.14 1.14 93 1011.4
20260507012738 6 199 3.2 3.2 0.00 1.14 1.14 93 1011.5
20260507012234 6 148 0.0 0.0 0.00 1.14 1.14 94 1011.3
20260507011732 6 156 0.0 0.0 0.00 1.14 1.14 94 1011.4
20260507011228 6 204 3.2 3.2 0.00 1.14 1.14 94 1011.4
20260507010727 6 248 4.8 4.8 0.00 1.14 1.14 94 1011.4
20260507010223 6 217 3.2 3.2 0.00 1.14 1.14 93 1011.3
20260507005721 6 157 0.0 0.0 0.00 1.14 1.14 94 1011.2
20260507005217 6 150 1.6 3.2 0.00 1.14 1.14 93 1011.1
20260507004714 6 197 6.4 11.3 0.00 1.14 1.14 93 1011.2
20260507004212 6 157 1.6 3.2 0.00 1.14 1.14 93 1011.3
20260507003708 6 185 4.8 4.8 0.00 1.14 1.14 93 1011.1
20260507003203 6 210 4.8 4.8 0.00 1.14 1.14 94 1011.2
20260507002659 6 192 4.8 4.8 0.00 1.14 1.14 94 1011.0
20260507002155 6 165 3.2 4.8 0.00 1.14 1.14 94 1011.0
20260507001652 7 162 1.6 1.6 0.00 1.14 1.14 93 1010.8
20260507001150 7 144 0.0 1.6 0.00 1.14 1.14 91 1010.8
20260507000646 7 148 0.0 1.6 0.00 1.14 1.14 91 1010.6
20260507000141 7 136 0.0 0.0 0.00 1.14 1.14 91 1010.5
20260506235639 7 150 0.0 0.0 0.00 1.14 1.14 90 1010.5
20260506235139 7 156 0.0 1.6 0.00 1.14 1.14 90 1010.6
20260506234637 7 161 0.0 1.6 0.00 1.14 1.14 90 1010.3
20260506234134 7 157 0.0 1.6 0.00 1.14 1.14 90 1010.3
20260506233631 7 162 0.0 0.0 0.00 1.14 1.14 90 1010.2
20260506233128 7 181 1.6 1.6 0.00 1.14 1.14 90 1010.2
20260506232624 7 153 0.0 0.0 0.00 1.14 1.14 90 1009.9
20260506232119 7 169 1.6 1.6 0.00 1.14 1.14 89 1010.2
20260506231617 7 148 0.0 0.0 0.00 1.14 1.14 90 1010.2
20260506231115 7 169 0.0 1.6 0.00 1.14 1.14 90 1010.4
20260506230612 7 224 3.2 3.2 0.00 1.14 1.14 90 1010.3
20260506230109 7 163 1.6 1.6 0.00 1.14 1.14 90 1010.2
20260506225605 7 130 0.0 0.0 0.00 1.14 1.14 90 1010.1
20260506225101 7 154 0.0 0.0 0.00 1.14 1.14 90 1010.4
20260506224558 7 158 0.0 0.0 0.00 1.14 1.14 90 1010.2
20260506224055 7 167 1.6 1.6 0.00 1.14 1.14 89 1010.3
20260506223551 7 154 0.0 0.0 0.00 1.14 1.14 89 1010.2
20260506223047 7 169 0.0 1.6 0.00 1.14 1.14 89 1010.3
20260506222544 8 213 3.2 3.2 0.00 1.14 1.14 89 1010.3
20260506222041 8 196 3.2 3.2 0.00 1.14 1.14 88 1010.0
20260506221538 8 275 3.2 3.2 0.00 1.14 1.14 84 1010.1
20260506221036 8 222 1.6 3.2 0.00 1.14 1.14 84 1010.2
20260506220532 8 187 3.2 3.2 0.00 1.14 1.14 84 1010.0
20260506220028 8 218 3.2 3.2 0.00 1.14 1.14 83 1010.1
20260506215525 8 185 1.6 1.6 0.00 1.14 1.14 82 1010.0
20260506215020 8 193 1.6 1.6 0.00 1.14 1.14 82 1009.9
20260506214518 8 151 0.0 0.0 0.00 1.14 1.14 83 1009.8
20260506214015 8 173 1.6 1.6 0.00 1.14 1.14 83 1009.8
20260506213513 8 212 1.6 1.6 0.00 1.14 1.14 83 1009.9
20260506213010 8 329 1.6 3.2 0.00 1.14 1.14 84 1009.7
20260506212506 8 61 1.6 1.6 0.00 1.14 1.14 84 1009.7
20260506212001 8 162 1.6 1.6 0.00 1.14 1.14 84 1010.0
20260506211457 8 348 3.2 3.2 0.00 1.14 1.14 83 1009.8
20260506210955 9 15 6.4 8.0 0.00 1.14 1.14 84 1009.7
20260506210451 9 139 1.6 4.8 0.00 1.14 1.14 85 1009.7
20260506205948 9 136 1.6 1.6 0.00 1.14 1.14 85 1009.6
20260506205444 8 155 0.0 1.6 0.00 1.14 1.14 85 1009.7
20260506204940 9 231 0.0 1.6 0.00 1.14 1.14 86 1009.6
20260506204438 8 120 1.6 1.6 0.00 1.14 1.14 87 1009.5
20260506203935 8 0 3.2 4.8 0.00 1.14 1.14 87 1009.6
20260506203432 8 138 0.0 1.6 0.00 1.14 1.14 87 1009.6
20260506202929 8 323 4.8 4.8 0.00 1.14 1.14 86 1009.5
20260506202426 8 151 0.0 1.6 0.00 1.14 1.14 88 1009.5
20260506201922 8 10 6.4 8.0 0.00 1.14 1.14 88 1009.6
20260506201420 8 46 3.2 3.2 0.00 1.14 1.14 88 1009.5
20260506200917 8 80 0.0 1.6 0.00 1.14 1.14 90 1009.5
20260506200413 8 327 4.8 4.8 0.00 1.14 1.14 89 1009.5
20260506195910 8 100 3.2 3.2 0.00 1.14 1.14 91 1009.6
20260506195407 8 8 3.2 4.8 0.00 1.14 1.14 90 1009.6
20260506194904 8 24 1.6 4.8 0.00 1.14 1.14 88 1009.5
20260506194401 8 125 1.6 3.2 0.00 1.14 1.14 86 1009.3
20260506193858 8 70 1.6 1.6 0.00 1.14 1.14 87 1009.1
20260506193354 9 338 6.4 9.7 0.00 1.14 1.14 86 1009.2
20260506192851 8 28 3.2 3.2 0.00 1.14 1.14 88 1009.2
20260506192348 8 105 4.8 8.0 0.00 1.14 1.14 88 1009.2
20260506191845 8 113 1.6 1.6 0.00 1.14 1.14 90 1009.4
20260506191341 8 44 3.2 8.0 0.00 1.14 1.14 89 1009.5
20260506190838 8 346 4.8 4.8 0.00 1.14 1.14 90 1009.6
20260506190334 7 294 1.6 3.2 0.00 1.14 1.14 90 1009.7
20260506185831 8 25 4.8 8.0 0.00 1.14 1.14 89 1009.7
20260506185328 7 140 4.8 4.8 0.00 1.14 1.14 90 1009.5
20260506184825 8 114 4.8 4.8 0.00 1.14 1.14 91 1009.5
20260506184322 8 107 3.2 3.2 0.00 1.14 1.14 92 1009.6
20260506183820 7 30 6.4 9.7 0.00 1.14 1.14 93 1009.4
20260506183315 7 357 6.4 8.0 0.00 1.14 1.14 92 1009.6
20260506182812 7 68 4.8 8.0 0.00 1.14 1.14 92 1009.3
20260506182309 7 342 6.4 8.0 0.00 1.14 1.14 92 1009.6
20260506181807 7 38 6.4 9.7 0.00 1.14 1.14 93 1009.4
20260506181305 8 31 6.4 8.0 0.00 1.14 1.14 93 1009.2
20260506180802 8 41 6.4 9.7 0.00 1.14 1.14 93 1009.2
20260506180257 7 58 4.8 4.8 0.00 1.14 1.14 92 1009.0
20260506175754 8 120 1.6 3.2 0.00 1.14 1.14 94 1009.1
20260506175251 7 148 3.2 3.2 0.00 1.14 1.14 93 1009.0
20260506174748 7 81 3.2 3.2 0.00 1.14 1.14 95 1009.0
20260506174245 7 87 6.4 9.7 0.00 1.14 1.14 95 1008.7
20260506173743 7 148 3.2 3.2 0.00 1.14 1.14 96 1008.8
20260506173240 7 112 1.6 3.2 0.00 1.14 1.14 96 1008.5
20260506172736 7 72 3.2 3.2 0.00 1.14 1.14 96 1008.9
20260506172233 7 149 0.0 1.6 0.00 1.14 1.14 96 1008.9
20260506171731 7 123 1.6 1.6 0.00 1.14 1.14 96 1008.9
20260506171228 7 50 3.2 3.2 0.00 1.14 1.14 97 1009.0
20260506170725 7 102 3.2 4.8 0.00 1.14 1.14 97 1008.9
20260506170222 7 116 1.6 3.2 0.00 1.14 1.14 98 1008.8
20260506165720 7 103 4.8 8.0 0.00 1.14 1.14 97 1008.7
20260506165217 7 49 0.0 1.6 0.00 1.14 1.14 98 1009.0
20260506164714 7 65 4.8 4.8 0.00 1.14 1.14 98 1008.9
20260506164211 7 68 6.4 8.0 0.00 1.14 1.14 99 1009.2
20260506163708 7 16 6.4 9.7 0.00 1.14 1.14 99 1008.9
20260506163203 7 159 3.2 3.2 0.00 1.14 1.14 99 1008.9
20260506162659 7 103 3.2 4.8 0.00 1.14 1.14 99 1009.0
20260506162157 7 41 11.3 14.5 0.00 1.14 1.14 99 1009.1
20260506161654 7 27 9.7 14.5 0.00 1.14 1.14 99 1009.1
20260506161150 7 30 9.7 14.5 0.18 1.14 1.14 99 1009.2
20260506160648 7 20 4.8 8.0 0.18 1.14 1.14 99 1009.3
20260506160145 6 28 8.0 11.3 0.00 1.12 1.12 99 1009.4
20260506155643 6 34 1.6 3.2 0.00 1.12 1.12 99 1009.6
20260506155140 6 34 6.4 9.7 0.00 1.12 1.12 99 1009.5
20260506153242 6 348 4.8 4.8 0.00 1.12 1.12 99 1009.5
20260506152739 6 21 6.4 8.0 0.00 1.12 1.12 99 1009.5
20260506152236 6 143 0.0 0.0 0.00 1.12 1.12 99 1009.4
20260506151735 6 74 1.6 1.6 0.00 1.12 1.12 99 1009.4
20260506151231 6 52 4.8 4.8 0.00 1.12 1.12 99 1009.2
20260506150728 6 86 0.0 1.6 0.00 1.12 1.12 99 1009.1
20260506150225 6 340 1.6 3.2 0.00 1.12 1.12 99 1009.2
20260506145722 6 53 4.8 8.0 0.00 1.12 1.12 99 1009.0
20260506145219 6 86 4.8 8.0 0.00 1.12 1.12 99 1009.1
20260506144716 6 46 4.8 8.0 0.00 1.12 1.12 99 1009.0
20260506144213 6 20 3.2 4.8 0.00 1.12 1.12 99 1008.9
20260506143710 6 9 11.3 14.5 0.00 1.12 1.12 99 1009.1
20260506143208 6 106 3.2 4.8 0.13 1.12 1.12 99 1009.0
20260506142707 6 132 4.8 4.8 0.13 1.12 1.12 99 1009.0
20260506142204 6 25 4.8 4.8 0.00 1.09 1.09 99 1009.1
20260506141702 6 142 1.6 1.6 0.00 1.09 1.09 99 1009.3
20260506141200 6 29 8.0 11.3 0.00 1.09 1.09 99 1009.4
20260506140657 6 146 1.6 1.6 0.00 1.09 1.09 99 1009.3
20260506140154 6 71 4.8 8.0 0.18 1.09 1.09 99 1009.1
20260506135651 6 106 1.6 3.2 0.18 1.09 1.09 99 1009.2
20260506135147 6 7 3.2 3.2 0.00 1.07 1.07 99 1009.2
20260506134644 6 87 1.6 1.6 0.18 1.07 1.07 99 1009.1
20260506134140 6 69 4.8 4.8 0.18 1.07 1.07 99 1009.3
20260506133637 6 145 8.0 14.5 0.00 1.04 1.04 99 1009.3
20260506133134 6 118 1.6 3.2 0.13 1.04 1.04 99 1009.2
20260506132632 6 53 3.2 3.2 0.13 1.04 1.04 99 1009.1
20260506132128 6 113 1.6 1.6 0.18 1.02 1.02 99 1009.2
20260506131626 6 50 3.2 3.2 0.18 1.02 1.02 99 1009.3
20260506131121 6 24 6.4 8.0 0.00 0.99 0.99 99 1009.2
20260506130619 6 26 3.2 4.8 0.00 0.99 0.99 99 1009.3
20260506130116 6 30 3.2 4.8 0.00 0.99 0.99 99 1009.0
20260506125614 6 113 1.6 3.2 0.13 0.99 0.99 99 1009.2
20260506125112 6 62 1.6 3.2 0.13 0.99 0.99 99 1009.2
20260506124609 6 142 1.6 3.2 0.00 0.97 0.97 99 1009.3
20260506124107 6 52 1.6 3.2 0.00 0.97 0.97 99 1009.3
20260506123604 6 120 3.2 4.8 0.00 0.97 0.97 99 1009.2
20260506123103 5 14 4.8 8.0 0.18 0.97 0.97 99 1009.3
20260506122559 5 88 0.0 1.6 0.18 0.97 0.97 99 1009.3
20260506122057 6 50 3.2 8.0 0.00 0.94 0.94 99 1008.9
20260506121554 5 26 3.2 4.8 0.00 0.94 0.94 99 1009.1
20260506121050 6 133 1.6 1.6 0.13 0.94 0.94 99 1009.0
20260506120549 6 23 1.6 3.2 0.13 0.94 0.94 99 1009.3
20260506120045 6 113 1.6 3.2 0.00 0.91 0.91 99 1009.4
20260506115544 5 29 1.6 3.2 0.18 0.91 0.91 99 1009.3
20260506115042 6 76 0.0 0.0 0.18 0.91 0.91 99 1009.5
20260506114539 6 84 1.6 1.6 0.00 0.89 0.89 99 1009.2
20260506114037 6 131 1.6 1.6 0.13 0.89 0.89 99 1009.4
20260506113535 6 133 0.0 1.6 0.13 0.89 0.89 99 1009.4
20260506113032 6 96 3.2 3.2 0.18 0.86 0.86 99 1009.7
20260506112528 5 88 0.0 1.6 0.18 0.86 0.86 99 1009.7
20260506112026 6 47 3.2 4.8 0.13 0.84 0.84 99 1009.9
20260506111524 6 127 1.6 1.6 0.13 0.84 0.84 99 1010.0
20260506111021 6 137 0.0 0.0 0.13 0.84 0.84 99 1010.2
20260506110518 6 138 0.0 0.0 0.00 0.81 0.81 99 1010.2
20260506110015 5 140 0.0 0.0 0.18 0.81 0.81 99 1009.8
20260506105511 5 119 1.6 3.2 0.18 0.81 0.81 99 1009.8
20260506105009 6 76 1.6 3.2 0.00 0.79 0.79 99 1009.5
20260506104507 6 130 0.0 0.0 0.00 0.79 0.79 99 1009.6
20260506104004 6 94 1.6 1.6 0.00 0.79 0.79 99 1009.5
20260506103501 6 42 3.2 4.8 0.13 0.79 0.79 99 1009.7
20260506102958 6 85 1.6 1.6 0.13 0.79 0.79 99 1009.7
20260506102456 6 142 0.0 0.0 0.18 0.76 0.76 99 1009.8
20260506101953 6 153 0.0 0.0 0.18 0.76 0.76 99 1010.0
20260506101449 6 133 0.0 1.6 0.18 0.74 0.74 99 1009.7
20260506100947 6 120 0.0 0.0 0.30 0.74 0.74 99 1009.8
20260506100445 6 147 0.0 0.0 0.30 0.71 0.71 99 1009.9
20260506095943 6 142 0.0 0.0 0.18 0.69 0.69 99 1009.8
20260506095442 6 146 0.0 0.0 0.13 0.66 0.66 99 1009.7
20260506094937 6 86 1.6 1.6 0.30 0.66 0.66 99 1009.6
20260506094436 6 142 0.0 0.0 0.30 0.64 0.64 99 1009.6
20260506093933 6 150 0.0 0.0 0.30 0.61 0.61 99 1009.5
20260506093431 6 48 1.6 1.6 0.48 0.58 0.58 99 1009.7
20260506092928 6 147 0.0 0.0 0.30 0.53 0.53 99 1009.5
20260506092426 6 147 0.0 0.0 0.30 0.51 0.51 99 1009.3
20260506091922 6 144 0.0 0.0 0.18 0.48 0.48 99 1009.4
20260506091421 6 140 0.0 0.0 0.36 0.48 0.48 99 1009.3
20260506090917 6 142 0.0 0.0 0.30 0.46 0.46 99 1009.5
20260506090415 6 139 0.0 0.0 0.30 0.43 0.43 99 1009.4
20260506085912 6 155 0.0 0.0 0.18 0.41 0.41 99 1009.3
20260506085409 6 137 0.0 1.6 0.13 0.38 0.38 99 1009.5
20260506084905 6 91 1.6 1.6 0.13 0.38 0.38 99 1009.5
20260506084402 6 140 0.0 0.0 0.00 0.36 0.36 99 1009.5
20260506083858 6 142 0.0 0.0 0.00 0.36 0.36 99 1009.8
20260506083355 6 146 0.0 0.0 0.18 0.36 0.36 99 1009.6
20260506082853 6 147 0.0 0.0 0.18 0.36 0.36 99 1009.6
20260506082349 7 143 0.0 0.0 0.00 0.33 0.33 99 1009.6
20260506081845 6 140 0.0 0.0 0.00 0.33 0.33 99 1009.6
20260506081344 6 148 0.0 0.0 0.00 0.33 0.33 99 1009.8
20260506080841 6 152 0.0 0.0 0.00 0.33 0.33 99 1009.9
20260506080337 6 147 0.0 0.0 0.00 0.33 0.33 99 1009.7
20260506073321 6 132 0.0 0.0 0.00 0.33 0.33 99 1009.8
20260506072818 6 162 0.0 0.0 0.13 0.33 0.33 99 1010.3
20260506072316 7 163 0.0 1.6 0.13 0.33 0.33 99 1010.3
20260506071813 7 148 0.0 0.0 0.00 0.30 0.30 99 1009.8
20260506071312 7 121 0.0 0.0 0.00 0.30 0.30 99 1009.6
20260506070808 6 165 0.0 0.0 0.00 0.30 0.30 99 1009.9
20260506070305 6 168 0.0 1.6 0.18 0.30 0.30 99 1010.2
20260506062242 6 167 0.0 0.0 0.13 0.23 0.23 99 1010.4
20260506061738 6 167 0.0 0.0 0.13 0.23 0.23 99 1010.3
20260506061236 7 168 0.0 0.0 0.13 0.23 0.23 99 1010.0